This is the latest recevied weather packets stored in our database for station/object IU2EVW-13. If no packets are shown the sender has not sent any weather packets the latest 10 day(s).
| Time | Temp. | Humidity | Pressure | Rain* | Wind** | Luminosity | Snow |
|---|---|---|---|---|---|---|---|
| 1777802491 | 17.22° C | 44% | 1020.6 hPa | - | - | - | - |
| 1777801289 | 16.67° C | 45% | 1020.9 hPa | - | - | - | - |
| 1777800088 | 16.11° C | 48% | 1021.1 hPa | - | - | - | - |
| 1777798887 | 15° C | 49% | 1021.1 hPa | - | - | - | - |
| 1777797685 | 14.44° C | 52% | 1021.4 hPa | - | - | - | - |
| 1777796484 | 13.89° C | 54% | 1021.6 hPa | - | - | - | - |
| 1777795283 | 13.89° C | 52% | 1021.8 hPa | - | - | - | - |
| 1777794079 | 13.89° C | 54% | 1021.9 hPa | - | - | - | - |
| 1777792877 | 13.33° C | 52% | 1021.9 hPa | - | - | - | - |
| 1777791676 | 13.33° C | 54% | 1022 hPa | - | - | - | - |
| 1777790475 | 12.78° C | 54% | 1022 hPa | - | - | - | - |
| 1777789273 | 12.22° C | 54% | 1022.1 hPa | - | - | - | - |
| 1777788072 | 11.67° C | 57% | 1022.3 hPa | - | - | - | - |
| 1777786871 | 11.11° C | 55% | 1022.2 hPa | - | - | - | - |
| 1777785669 | 11.11° C | 55% | 1022.1 hPa | - | - | - | - |
| 1777784468 | 11.11° C | 55% | 1022.2 hPa | - | - | - | - |
| 1777783267 | 10.56° C | 55% | 1022.2 hPa | - | - | - | - |
| 1777782065 | 10.56° C | 55% | 1022.3 hPa | - | - | - | - |
| 1777780864 | 10.56° C | 54% | 1022.3 hPa | - | - | - | - |
| 1777779663 | 10° C | 55% | 1022.4 hPa | - | - | - | - |
| 1777778462 | 10.56° C | 54% | 1022.4 hPa | - | - | - | - |
| 1777777260 | 10.56° C | 54% | 1022.4 hPa | - | - | - | - |
| 1777776059 | 10.56° C | 55% | 1022.4 hPa | - | - | - | - |
| 1777774858 | 11.11° C | 54% | 1022.7 hPa | - | - | - | - |
| 1777773656 | 11.11° C | 54% | 1022.9 hPa | - | - | - | - |
* Rain since midnight (hover to see other rain measurements)
** Current wind speed in m/s (hover to see current wind gust speed)